CT1ETE Weather Reports


time (UTC)temp
C
wind
direction
speed
KPH
gust
KPH
rain 1hr
cm
rain 24hr
cm
rain mn
cm
humidity
%
barometer
mb
20180623042432 25 68 24.1 38.6 0.00 0.00 0.00 59 1015.0
20180623040930 25 78 22.5 43.5 0.00 0.00 0.00 60 1015.0
20180623035430 25 66 20.9 38.6 0.00 0.00 0.00 61 1015.1
20180623033938 25 71 17.7 35.4 0.00 0.00 0.00 62 1015.5
20180623033930 25 75 17.7 33.8 0.00 0.00 0.00 61 1015.2
20180623032430 25 71 17.7 35.4 0.00 0.00 0.00 62 1015.5
20180623030930 25 69 20.9 37.0 0.00 0.00 0.00 65 1015.6
20180623025430 24 84 14.5 25.7 0.00 0.00 0.00 67 1015.7
20180623023939 24 75 29.0 38.6 0.00 0.00 0.00 69 1015.8
20180623023930 24 76 22.5 35.4 0.00 0.00 0.00 68 1015.7
20180623022430 24 75 29.0 38.6 0.00 0.00 0.00 69 1015.8
20180623020936 23 84 17.7 24.1 0.00 0.00 0.00 76 1015.9
20180623020928 23 69 22.5 33.8 0.00 0.00 0.00 73 1015.9
20180623015428 23 84 17.7 24.1 0.00 0.00 0.00 76 1015.9
20180623013937 23 85 4.8 16.1 0.00 0.00 0.00 75 1016.4
20180623013928 23 89 11.3 19.3 0.00 0.00 0.00 77 1016.1
20180623012428 23 85 4.8 16.1 0.00 0.00 0.00 75 1016.4
20180623010926 23 93 11.3 16.1 0.00 0.00 0.00 75 1016.5
20180623005427 22 90 8.0 12.9 0.00 0.00 0.00 74 1016.6
20180623003926 22 89 9.7 14.5 0.00 0.00 0.00 74 1016.8
20180623002426 22 107 9.7 16.1 0.00 0.00 0.00 75 1017.0
20180623000926 22 101 8.0 12.9 0.00 0.00 0.00 77 1017.1
20180622235427 22 80 8.0 12.9 0.00 0.00 0.00 78 1017.2
20180622233933 22 125 11.3 14.5 0.00 0.00 0.00 75 1017.1
20180622233924 22 77 8.0 12.9 0.00 0.00 0.00 75 1017.1
20180622232424 22 125 11.3 14.5 0.00 0.00 0.00 75 1017.1
20180622230923 22 125 9.7 14.5 0.00 0.00 0.00 76 1017.3
20180622225427 22 91 6.4 11.3 0.00 0.00 0.00 75 1017.3
20180622223921 22 94 9.7 14.5 0.00 0.00 0.00 75 1017.3
20180622222421 22 73 0.0 0.0 0.00 0.00 0.00 73 1017.4
20180622220920 22 86 0.0 0.0 0.00 0.00 0.00 73 1017.4
20180622215418 22 146 0.0 4.8 0.00 0.00 0.00 73 1017.4
20180622213915 23 74 3.2 6.4 0.00 0.00 0.00 71 1017.4
20180622212415 23 104 3.2 11.3 0.00 0.00 0.00 71 1017.3
20180622210916 23 122 0.0 0.0 0.00 0.00 0.00 70 1017.3
20180622205414 23 122 0.0 0.0 0.00 0.00 0.00 70 1017.2
20180622203913 23 78 0.0 0.0 0.00 0.00 0.00 70 1017.1
20180622202413 24 244 0.0 0.0 0.00 0.03 0.00 67 1017.0
20180622201021 25 219 4.8 11.3 0.00 0.05 0.00 65 1016.7
20180622200949 25 219 4.8 11.3 0.00 0.05 0.00 65 1016.7
20180622200914 25 244 0.0 0.0 0.00 0.05 0.00 66 1016.9
20180622200910 25 244 0.0 8.0 0.00 0.05 0.00 66 1016.9
20180622192410 25 211 9.7 20.9 0.00 0.10 0.00 66 1016.7
20180622190910 25 248 12.9 22.5 0.00 0.13 0.00 64 1016.8
20180622185410 26 218 12.9 19.3 0.00 0.13 0.00 64 1016.7
20180622183910 26 209 14.5 24.1 0.00 0.13 0.00 64 1016.7
20180622182409 26 227 19.3 25.7 0.00 0.13 0.00 65 1016.6
20180622180918 26 238 19.3 25.7 0.00 0.13 0.00 65 1016.4
20180622180909 26 220 19.3 29.0 0.00 0.13 0.00 65 1016.5
20180622175409 26 238 19.3 25.7 0.00 0.13 0.00 65 1016.4
20180622173909 27 223 19.3 24.1 0.00 0.13 0.00 66 1016.3
20180622172409 27 246 16.1 25.7 0.00 0.13 0.00 66 1016.3
20180622170909 27 225 20.9 27.4 0.00 0.13 0.00 66 1016.3
20180622165418 28 233 19.3 30.6 0.00 0.13 0.00 66 1016.4
20180622165409 27 215 19.3 29.0 0.00 0.13 0.00 66 1016.3
20180622163909 28 233 19.3 30.6 0.00 0.13 0.00 66 1016.4
20180622162407 28 229 20.9 30.6 0.00 0.13 0.00 66 1016.5
20180622160906 30 236 17.7 29.0 0.00 0.13 0.00 60 1016.5
20180622155406 31 246 11.3 22.5 0.00 0.13 0.00 45 1016.6
20180622153903 31 269 4.8 8.0 0.00 0.13 0.00 42 1016.6
20180622152411 31 333 4.8 12.9 0.00 0.13 0.00 40 1016.8
20180622152403 31 296 1.6 11.3 0.00 0.13 0.00 42 1016.7
20180622151018 30 26 8.0 17.7 0.00 0.13 0.00 42 1016.8
20180622150904 31 333 4.8 12.9 0.00 0.13 0.00 40 1016.8
20180622145404 30 26 8.0 17.7 0.00 0.13 0.00 42 1016.8
20180622143901 30 31 8.0 17.7 0.00 0.13 0.00 41 1016.8
20180622142402 30 44 8.0 17.7 0.00 0.13 0.00 46 1017.0
20180622140901 30 100 4.8 11.3 0.00 0.13 0.00 43 1017.1
20180622135401 30 26 3.2 14.5 0.00 0.13 0.00 42 1017.3
20180622133901 29 307 4.8 14.5 0.00 0.13 0.00 45 1017.4
20180622132401 28 99 11.3 17.7 0.00 0.13 0.00 49 1017.7
20180622130901 28 57 9.7 19.3 0.00 0.13 0.00 50 1017.7
20180622125401 28 40 8.0 17.7 0.00 0.13 0.00 56 1017.9
20180622123859 27 74 9.7 22.5 0.00 0.13 0.00 58 1018.0
20180622122359 27 83 12.9 25.7 0.00 0.13 0.00 61 1018.1
20180622120859 26 48 6.4 17.7 0.00 0.13 0.00 66 1018.0
20180622115359 26 63 8.0 17.7 0.00 0.13 0.00 68 1017.9
20180622113859 24 10 8.0 14.5 0.00 0.13 0.00 73 1018.1
20180622112359 23 32 8.0 16.1 0.00 0.13 0.00 74 1018.7
20180622110859 22 28 4.8 12.9 0.00 0.13 0.00 75 1019.0
20180622105359 22 90 4.8 22.5 0.00 0.13 0.00 74 1019.8
20180622103859 22 126 12.9 27.4 0.00 0.13 0.00 75 1020.2
20180622102359 21 150 12.9 24.1 0.00 0.13 0.00 77 1020.4
20180622100859 21 174 12.9 25.7 0.00 0.13 0.00 79 1020.2
20180622095359 21 130 4.8 12.9 0.00 0.13 0.00 78 1019.8
20180622093859 21 215 6.4 16.1 0.00 0.13 0.00 81 1019.5
20180622092359 21 225 12.9 20.9 0.00 0.13 0.00 78 1019.6
20180622090859 22 217 4.8 16.1 0.00 0.13 0.00 71 1019.5
20180622083859 22 117 3.2 14.5 0.00 0.13 0.00 72 1019.1
20180622082407 22 333 8.0 16.1 0.00 0.13 0.00 70 1019.1
20180622082400 22 11 9.7 17.7 0.00 0.13 0.00 71 1019.0
20180622081014 22 94 8.0 14.5 0.00 0.13 0.00 74 1019.7
20180622080858 22 333 8.0 16.1 0.00 0.13 0.00 70 1019.1
20180622075358 22 94 8.0 14.5 0.00 0.13 0.00 74 1019.7
20180622073858 20 64 8.0 16.1 0.00 0.13 0.00 77 1020.1
20180622072358 20 64 9.7 14.5 0.00 0.13 0.00 78 1020.2
20180622070859 19 95 8.0 14.5 0.00 0.13 0.00 81 1020.0
20180622065359 19 97 6.4 11.3 0.00 0.13 0.00 79 1020.3
20180622063908 19 86 8.0 17.7 0.00 0.13 0.00 78 1019.6
20180622063859 19 42 1.6 6.4 0.00 0.13 0.00 78 1020.0
20180622062359 19 86 8.0 17.7 0.00 0.13 0.00 78 1019.6
20180622060858 19 219 11.3 27.4 0.00 0.13 0.00 78 1019.5
20180622055406 19 200 3.2 12.9 0.00 0.13 0.00 77 1018.7
20180622055358 19 69 4.8 11.3 0.00 0.13 0.00 77 1019.0
20180622053857 19 200 3.2 12.9 0.00 0.13 0.00 77 1018.7
20180622052356 20 207 8.0 16.1 0.00 0.13 0.00 72 1018.6
20180622050855 21 116 14.5 24.1 0.00 0.13 0.00 66 1018.0
20180622045354 20 71 17.7 24.1 0.00 0.13 0.00 69 1017.8
20180622043854 20 76 16.1 24.1 0.00 0.13 0.00 69 1018.1